EZY49DA EGKK-LFBD

Flight info

Callsign EZY49DA
Flight time 1h 13m
Altitude 33000
Route SFD Y47 BENBO UY47 DRAKE L151 SITET UN859 SOPIL DCT BALAN DCT LMG
Aircraft A21N/M-SDE2E3FGHIJ1RWXYZ/LB1G1

Departure

Time 2026-05-06 21:05
Airport London Gatwick Airport (EGKK)

Arrival

Time 2026-05-06 22:18
Airport Bordeaux–Mérignac Airport (LFBD)
Time Latitude Longitude Altitude Speed Heading
2026-05-06 20:17 51.15841 -0.17633 214 ft 0 kts 347°
2026-05-06 20:27 51.15838 -0.17636 221 ft 0 kts 347°
2026-05-06 20:42 51.15836 -0.17635 213 ft 3 kts 347°
2026-05-06 20:42 51.15810 -0.17624 215 ft 4 kts 341°
2026-05-06 20:42 51.15785 -0.17609 221 ft 4 kts 332°
2026-05-06 20:43 51.15764 -0.17585 223 ft 4 kts 310°
2026-05-06 20:43 51.15755 -0.17554 219 ft 2 kts 260°
2026-05-06 20:43 51.15755 -0.17550 219 ft 0 kts 258°
2026-05-06 20:47 51.15752 -0.17568 219 ft 8 kts 258°
2026-05-06 20:47 51.15730 -0.17735 216 ft 20 kts 258°
2026-05-06 20:47 51.15700 -0.17961 216 ft 21 kts 257°
2026-05-06 20:48 51.15666 -0.18197 216 ft 23 kts 247°
2026-05-06 20:48 51.15526 -0.18201 216 ft 10 kts 167°
2026-05-06 20:48 51.15449 -0.18169 214 ft 12 kts 161°
2026-05-06 20:48 51.15359 -0.18135 218 ft 14 kts 169°
2026-05-06 20:49 51.15278 -0.18109 215 ft 0 kts 169°
2026-05-06 20:49 51.15265 -0.18105 215 ft 6 kts 169°
2026-05-06 20:49 51.15209 -0.18126 215 ft 11 kts 240°
2026-05-06 20:49 51.15183 -0.18245 215 ft 12 kts 274°
2026-05-06 20:50 51.15178 -0.18388 212 ft 14 kts 257°
2026-05-06 20:50 51.15155 -0.18546 215 ft 15 kts 258°
2026-05-06 20:50 51.15131 -0.18722 212 ft 17 kts 257°
2026-05-06 20:50 51.15105 -0.18901 215 ft 10 kts 257°
2026-05-06 20:51 51.15104 -0.18910 214 ft 2 kts 257°
2026-05-06 20:51 51.15098 -0.18949 216 ft 6 kts 257°
2026-05-06 20:51 51.15086 -0.19038 221 ft 11 kts 257°
2026-05-06 20:51 51.15063 -0.19219 213 ft 26 kts 258°
2026-05-06 20:52 51.15031 -0.19458 215 ft 14 kts 257°
2026-05-06 20:52 51.15007 -0.19620 215 ft 16 kts 257°
2026-05-06 20:52 51.14982 -0.19800 216 ft 17 kts 257°
2026-05-06 20:52 51.14954 -0.19995 217 ft 19 kts 258°
2026-05-06 20:53 51.14927 -0.20205 217 ft 20 kts 258°
2026-05-06 20:53 51.14896 -0.20425 219 ft 21 kts 257°
2026-05-06 20:53 51.14862 -0.20662 212 ft 23 kts 258°
2026-05-06 20:53 51.14829 -0.20913 215 ft 23 kts 256°
2026-05-06 20:54 51.14816 -0.20999 214 ft 0 kts 258°
2026-05-06 20:54 51.14811 -0.21035 216 ft 9 kts 258°
2026-05-06 20:54 51.14796 -0.21146 217 ft 11 kts 254°
2026-05-06 20:54 51.14773 -0.21270 213 ft 13 kts 276°
2026-05-06 20:55 51.14732 -0.21395 215 ft 14 kts 184°
2026-05-06 20:55 51.14716 -0.21392 213 ft 0 kts 178°
2026-05-06 20:55 51.14706 -0.21394 215 ft 2 kts 187°
2026-05-06 20:55 51.14684 -0.21388 212 ft 3 kts 148°
2026-05-06 20:56 51.14683 -0.21388 219 ft 0 kts 142°
2026-05-06 21:00 51.14656 -0.21354 216 ft 8 kts 142°
2026-05-06 21:00 51.14638 -0.21336 212 ft 1 kts 162°
2026-05-06 21:00 51.14622 -0.21329 212 ft 3 kts 164°
2026-05-06 21:00 51.14619 -0.21328 211 ft 0 kts 164°
2026-05-06 21:03 51.14616 -0.21327 211 ft 5 kts 164°
2026-05-06 21:03 51.14569 -0.21300 212 ft 9 kts 152°
2026-05-06 21:03 51.14527 -0.21211 221 ft 12 kts 97°
2026-05-06 21:03 51.14535 -0.21091 212 ft 0 kts 58°
2026-05-06 21:04 51.14539 -0.21036 212 ft 7 kts 83°
2026-05-06 21:04 51.14548 -0.20954 214 ft 9 kts 77°
2026-05-06 21:04 51.14609 -0.20524 218 ft 77 kts 77°
2026-05-06 21:04 51.14776 -0.19329 214 ft 141 kts 77°
2026-05-06 21:05 51.14999 -0.17577 397 ft 170 kts 80°
2026-05-06 21:05 51.15231 -0.15736 1111 ft 172 kts 77°
2026-05-06 21:05 51.15516 -0.13839 1785 ft 180 kts 74°
2026-05-06 21:05 51.15802 -0.11819 2381 ft 193 kts 75°
2026-05-06 21:06 51.16036 -0.09627 3007 ft 208 kts 86°
2026-05-06 21:06 51.15709 -0.07296 3606 ft 226 kts 117°
2026-05-06 21:06 51.14664 -0.05376 4156 ft 246 kts 148°
2026-05-06 21:06 51.13003 -0.04420 4696 ft 263 kts 170°
2026-05-06 21:07 51.11172 -0.03928 5412 ft 269 kts 172°
2026-05-06 21:07 51.09315 -0.03409 5853 ft 271 kts 168°
2026-05-06 21:07 51.07501 -0.02655 5991 ft 271 kts 165°
2026-05-06 21:07 51.05691 -0.01820 6015 ft 271 kts 164°
2026-05-06 21:08 51.03877 -0.00967 6004 ft 271 kts 164°
2026-05-06 21:08 51.02066 -0.00112 5996 ft 271 kts 164°
2026-05-06 21:08 51.00249 0.00749 6002 ft 271 kts 164°
2026-05-06 21:08 50.98466 0.01597 6014 ft 272 kts 164°
2026-05-06 21:09 50.96654 0.02455 6195 ft 271 kts 164°
2026-05-06 21:09 50.94842 0.03313 6622 ft 273 kts 164°
2026-05-06 21:09 50.92987 0.04013 7072 ft 275 kts 176°
2026-05-06 21:09 50.91070 0.03993 7575 ft 277 kts 184°
2026-05-06 21:10 50.89131 0.03814 8084 ft 280 kts 184°
2026-05-06 21:10 50.87171 0.03647 8604 ft 283 kts 184°
2026-05-06 21:10 50.85194 0.03503 9130 ft 286 kts 183°
2026-05-06 21:10 50.83192 0.03379 9667 ft 289 kts 183°
2026-05-06 21:11 50.81158 0.03263 10177 ft 298 kts 183°
2026-05-06 21:11 50.79025 0.03147 10694 ft 314 kts 183°
2026-05-06 21:11 50.76817 0.03026 11207 ft 329 kts 183°
2026-05-06 21:11 50.74510 0.02900 11736 ft 334 kts 183°
2026-05-06 21:12 50.72176 0.02780 12258 ft 336 kts 182°
2026-05-06 21:12 50.69823 0.02663 12778 ft 339 kts 182°
2026-05-06 21:12 50.67454 0.02549 13310 ft 342 kts 182°
2026-05-06 21:12 50.65062 0.02432 13845 ft 345 kts 182°
2026-05-06 21:13 50.62652 0.02317 14328 ft 348 kts 182°
2026-05-06 21:13 50.60224 0.02204 14816 ft 350 kts 182°
2026-05-06 21:13 50.57781 0.02092 15316 ft 352 kts 182°
2026-05-06 21:13 50.55321 0.01976 15821 ft 354 kts 183°
2026-05-06 21:14 50.52878 0.01861 16327 ft 356 kts 183°
2026-05-06 21:14 50.50387 0.01743 16853 ft 358 kts 183°
2026-05-06 21:14 50.47875 0.01624 17387 ft 361 kts 183°
2026-05-06 21:14 50.45355 0.01505 17928 ft 363 kts 183°
2026-05-06 21:15 50.42821 0.01383 18456 ft 366 kts 183°
2026-05-06 21:15 50.40292 0.01264 18928 ft 368 kts 183°
2026-05-06 21:15 50.37718 0.01145 19415 ft 370 kts 183°
2026-05-06 21:15 50.35129 0.01027 19909 ft 373 kts 183°
2026-05-06 21:16 50.32528 0.00905 20414 ft 375 kts 183°
2026-05-06 21:16 50.29908 0.00778 20924 ft 378 kts 183°
2026-05-06 21:16 50.27303 0.00656 21446 ft 381 kts 183°
2026-05-06 21:16 50.24638 0.00533 21977 ft 383 kts 183°
2026-05-06 21:17 50.21959 0.00412 22514 ft 387 kts 183°
2026-05-06 21:17 50.19275 0.00283 23064 ft 390 kts 183°
2026-05-06 21:17 50.16545 0.00151 23616 ft 393 kts 183°
2026-05-06 21:17 50.13796 0.00023 24085 ft 396 kts 183°
2026-05-06 21:18 50.11014 -0.00062 24568 ft 399 kts 180°
2026-05-06 21:18 50.08285 0.00517 25038 ft 403 kts 168°
2026-05-06 21:18 50.05566 0.01654 25538 ft 405 kts 165°
2026-05-06 21:18 50.02841 0.02878 26042 ft 407 kts 165°
2026-05-06 21:19 50.00116 0.04053 26553 ft 408 kts 166°
2026-05-06 21:19 49.97365 0.05182 27075 ft 408 kts 166°
2026-05-06 21:19 49.94606 0.06280 27612 ft 408 kts 167°
2026-05-06 21:19 49.91902 0.07342 28131 ft 407 kts 167°
2026-05-06 21:20 49.89142 0.08418 28682 ft 406 kts 167°
2026-05-06 21:20 49.86384 0.09488 28996 ft 411 kts 167°
2026-05-06 21:20 49.83572 0.10576 29067 ft 422 kts 167°
2026-05-06 21:21 49.78592 0.12521 29032 ft 430 kts 167°
2026-05-06 21:21 49.72775 0.14792 29247 ft 431 kts 167°
2026-05-06 21:21 49.69866 0.15925 29746 ft 431 kts 167°
2026-05-06 21:22 49.67009 0.17041 30268 ft 428 kts 167°
2026-05-06 21:22 49.64124 0.18193 30777 ft 425 kts 166°
2026-05-06 21:22 49.61268 0.19349 31295 ft 422 kts 166°
2026-05-06 21:22 49.58438 0.20496 31812 ft 418 kts 166°
2026-05-06 21:23 49.55673 0.21615 32354 ft 413 kts 166°
2026-05-06 21:23 49.52906 0.22728 32857 ft 409 kts 166°
2026-05-06 21:23 49.50130 0.23837 33035 ft 414 kts 166°
2026-05-06 21:24 49.44441 0.26100 33052 ft 430 kts 166°
2026-05-06 21:24 49.38593 0.28441 33040 ft 439 kts 166°
2026-05-06 21:25 49.32668 0.30811 33022 ft 440 kts 166°
2026-05-06 21:25 49.26744 0.33237 33020 ft 440 kts 165°
2026-05-06 21:26 49.20833 0.35734 33020 ft 440 kts 165°
2026-05-06 21:26 49.14943 0.38214 33013 ft 441 kts 165°
2026-05-06 21:27 49.09024 0.40693 33010 ft 441 kts 165°
2026-05-06 21:27 49.03114 0.43167 33003 ft 441 kts 165°
2026-05-06 21:28 48.97188 0.45639 33007 ft 441 kts 165°
2026-05-06 21:28 48.91244 0.48120 33010 ft 442 kts 165°
2026-05-06 21:29 48.85330 0.50575 33009 ft 442 kts 165°
2026-05-06 21:29 48.79377 0.53038 33011 ft 442 kts 165°
2026-05-06 21:30 48.73421 0.55416 33007 ft 442 kts 166°
2026-05-06 21:30 48.67487 0.57727 33012 ft 443 kts 166°
2026-05-06 21:31 48.61490 0.60063 33005 ft 443 kts 166°
2026-05-06 21:31 48.55528 0.62399 33008 ft 443 kts 166°
2026-05-06 21:32 48.49587 0.64722 33005 ft 443 kts 165°
2026-05-06 21:32 48.40646 0.68371 32999 ft 444 kts 165°
2026-05-06 21:33 48.35683 0.70391 32995 ft 443 kts 165°
2026-05-06 21:33 48.29725 0.72809 33000 ft 443 kts 165°
2026-05-06 21:34 48.23751 0.75215 33000 ft 443 kts 166°
2026-05-06 21:34 48.17814 0.77551 32995 ft 444 kts 166°
2026-05-06 21:35 48.11814 0.79906 32998 ft 444 kts 166°
2026-05-06 21:35 48.05862 0.82236 32992 ft 444 kts 166°
2026-05-06 21:36 47.99873 0.84580 32993 ft 444 kts 166°
2026-05-06 21:36 47.93888 0.86914 32995 ft 444 kts 166°
2026-05-06 21:37 47.87927 0.89242 32993 ft 444 kts 166°
2026-05-06 21:37 47.81920 0.91571 32994 ft 445 kts 166°
2026-05-06 21:38 47.75961 0.93882 32992 ft 445 kts 166°
2026-05-06 21:38 47.69963 0.96200 32993 ft 445 kts 166°
2026-05-06 21:39 47.63958 0.98516 32989 ft 445 kts 166°
2026-05-06 21:39 47.58003 1.00810 32989 ft 445 kts 166°
2026-05-06 21:40 47.52022 1.03104 32989 ft 444 kts 166°
2026-05-06 21:40 47.46032 1.05404 32991 ft 445 kts 166°
2026-05-06 21:41 47.39923 1.06557 32989 ft 442 kts 182°
2026-05-06 21:41 47.33761 1.06199 32988 ft 443 kts 183°
2026-05-06 21:42 47.27620 1.05960 32986 ft 443 kts 182°
2026-05-06 21:42 47.21479 1.05810 32991 ft 443 kts 182°
2026-05-06 21:43 47.15304 1.05668 32990 ft 443 kts 182°
2026-05-06 21:43 47.09116 1.05527 32988 ft 443 kts 182°
2026-05-06 21:44 47.02975 1.05385 32983 ft 443 kts 182°
2026-05-06 21:44 46.96800 1.05164 32989 ft 444 kts 183°
2026-05-06 21:45 46.90660 1.04885 32993 ft 444 kts 183°
2026-05-06 21:45 46.84478 1.04618 32986 ft 443 kts 183°
2026-05-06 21:46 46.78293 1.04354 32987 ft 443 kts 183°
2026-05-06 21:46 46.72155 1.04093 32987 ft 443 kts 183°
2026-05-06 21:47 46.65968 1.03830 32984 ft 443 kts 183°
2026-05-06 21:47 46.59804 1.03565 32988 ft 443 kts 183°
2026-05-06 21:48 46.53621 1.03305 32982 ft 443 kts 183°
2026-05-06 21:48 46.47469 1.03173 32985 ft 444 kts 182°
2026-05-06 21:49 46.41291 1.03113 32983 ft 443 kts 182°
2026-05-06 21:49 46.35146 1.03044 32981 ft 443 kts 182°
2026-05-06 21:50 46.28963 1.02975 32981 ft 444 kts 182°
2026-05-06 21:50 46.22762 1.02911 32978 ft 444 kts 182°
2026-05-06 21:51 46.16606 1.02843 32980 ft 444 kts 182°
2026-05-06 21:51 46.10428 1.02778 32987 ft 444 kts 182°
2026-05-06 21:52 46.04278 1.02708 32984 ft 444 kts 182°
2026-05-06 21:52 45.98087 1.02639 32988 ft 444 kts 182°
2026-05-06 21:53 45.91933 1.02577 32989 ft 444 kts 182°
2026-05-06 21:53 45.85736 1.02446 32985 ft 443 kts 187°
2026-05-06 21:54 45.82752 1.01491 32981 ft 438 kts 204°
2026-05-06 21:54 45.80136 0.99335 32983 ft 432 kts 222°
2026-05-06 21:54 45.78111 0.96215 32995 ft 427 kts 237°
2026-05-06 21:54 45.76420 0.92713 32993 ft 427 kts 239°
2026-05-06 21:55 45.73061 0.85702 32980 ft 427 kts 237°
2026-05-06 21:55 45.69614 0.78843 32977 ft 427 kts 237°
2026-05-06 21:56 45.66128 0.71997 32782 ft 420 kts 236°
2026-05-06 21:56 45.64401 0.68621 31930 ft 423 kts 236°
2026-05-06 21:56 45.62664 0.65233 31345 ft 420 kts 236°
2026-05-06 21:57 45.60948 0.61893 30829 ft 415 kts 236°
2026-05-06 21:57 45.59247 0.58579 30275 ft 411 kts 236°
2026-05-06 21:57 45.57561 0.55305 29692 ft 407 kts 236°
2026-05-06 21:57 45.55909 0.52103 29072 ft 403 kts 236°
2026-05-06 21:58 45.54254 0.48903 28463 ft 399 kts 236°
2026-05-06 21:58 45.52616 0.45725 27874 ft 395 kts 236°
2026-05-06 21:58 45.50992 0.42588 27301 ft 392 kts 236°
2026-05-06 21:58 45.49380 0.39474 26732 ft 389 kts 236°
2026-05-06 21:59 45.47768 0.36376 26163 ft 385 kts 236°
2026-05-06 21:59 45.46172 0.33312 25610 ft 382 kts 236°
2026-05-06 21:59 45.44610 0.30312 25071 ft 380 kts 236°
2026-05-06 21:59 45.43034 0.27288 24549 ft 377 kts 236°
2026-05-06 22:00 45.41477 0.24289 24010 ft 374 kts 236°
2026-05-06 22:00 45.39955 0.21354 23505 ft 372 kts 236°
2026-05-06 22:00 45.38420 0.18403 22914 ft 369 kts 236°
2026-05-06 22:00 45.36891 0.15476 22346 ft 366 kts 236°
2026-05-06 22:01 45.35370 0.12580 21784 ft 363 kts 236°
2026-05-06 22:01 45.33876 0.09693 21235 ft 361 kts 236°
2026-05-06 22:01 45.32404 0.06821 20689 ft 358 kts 236°
2026-05-06 22:01 45.30939 0.03957 20176 ft 356 kts 236°
2026-05-06 22:02 45.29501 0.01153 19646 ft 354 kts 236°
2026-05-06 22:02 45.28047 -0.01674 19135 ft 353 kts 235°
2026-05-06 22:02 45.26597 -0.04481 18632 ft 351 kts 235°
2026-05-06 22:02 45.25158 -0.07273 18119 ft 349 kts 235°
2026-05-06 22:03 45.23751 -0.10015 17640 ft 346 kts 235°
2026-05-06 22:03 45.22338 -0.12766 17130 ft 343 kts 235°
2026-05-06 22:03 45.20930 -0.15502 16616 ft 341 kts 235°
2026-05-06 22:03 45.19535 -0.18210 16164 ft 337 kts 235°
2026-05-06 22:04 45.18220 -0.20753 15693 ft 336 kts 235°
2026-05-06 22:04 45.16832 -0.23342 15230 ft 334 kts 231°
2026-05-06 22:04 45.15261 -0.25700 14779 ft 332 kts 226°
2026-05-06 22:04 45.13629 -0.27998 14323 ft 330 kts 226°
2026-05-06 22:05 45.12001 -0.30287 13889 ft 328 kts 226°
2026-05-06 22:05 45.10386 -0.32555 13417 ft 325 kts 224°
2026-05-06 22:05 45.08474 -0.34243 12889 ft 327 kts 199°
2026-05-06 22:05 45.06737 -0.34689 12523 ft 326 kts 185°
2026-05-06 22:06 45.04476 -0.34789 12089 ft 324 kts 182°
2026-05-06 22:06 45.02229 -0.34882 11640 ft 321 kts 184°
2026-05-06 22:06 44.99999 -0.35065 11178 ft 320 kts 185°
2026-05-06 22:06 44.97792 -0.35305 10779 ft 316 kts 186°
2026-05-06 22:07 44.95604 -0.35577 10353 ft 314 kts 186°
2026-05-06 22:07 44.93429 -0.35869 9930 ft 313 kts 187°
2026-05-06 22:07 44.91315 -0.36160 9655 ft 305 kts 187°
2026-05-06 22:07 44.89228 -0.36454 9464 ft 294 kts 187°
2026-05-06 22:08 44.87212 -0.36744 9125 ft 290 kts 187°
2026-05-06 22:08 44.85203 -0.37062 8679 ft 290 kts 191°
2026-05-06 22:08 44.83268 -0.37833 8250 ft 288 kts 200°
2026-05-06 22:08 44.81374 -0.38744 7839 ft 287 kts 200°
2026-05-06 22:09 44.79490 -0.39622 7448 ft 285 kts 199°
2026-05-06 22:09 44.77676 -0.40693 7144 ft 277 kts 218°
2026-05-06 22:09 44.76491 -0.42685 6875 ft 261 kts 250°
2026-05-06 22:09 44.76246 -0.45135 6165 ft 258 kts 283°
2026-05-06 22:10 44.76915 -0.47470 5467 ft 258 kts 299°
2026-05-06 22:10 44.77735 -0.49711 4865 ft 256 kts 297°
2026-05-06 22:10 44.78633 -0.51866 4229 ft 253 kts 315°
2026-05-06 22:10 44.80078 -0.53166 3789 ft 252 kts 344°
2026-05-06 22:11 44.81824 -0.53269 3507 ft 254 kts 13°
2026-05-06 22:11 44.83339 -0.52166 3323 ft 257 kts 42°
2026-05-06 22:11 44.84487 -0.50143 3169 ft 260 kts 55°
2026-05-06 22:11 44.85333 -0.47858 3006 ft 262 kts 75°
2026-05-06 22:12 44.85401 -0.45398 2953 ft 265 kts 97°
2026-05-06 22:12 44.84746 -0.42983 2949 ft 268 kts 127°
2026-05-06 22:12 44.83369 -0.41231 2978 ft 269 kts 148°
2026-05-06 22:12 44.81760 -0.39884 2988 ft 269 kts 153°
2026-05-06 22:13 44.79980 -0.39156 2983 ft 266 kts 183°
2026-05-06 22:13 44.78303 -0.39850 2995 ft 242 kts 220°
2026-05-06 22:13 44.77370 -0.41624 2976 ft 216 kts 256°
2026-05-06 22:13 44.77214 -0.43614 2969 ft 198 kts 278°
2026-05-06 22:14 44.77427 -0.45443 2967 ft 189 kts 286°
2026-05-06 22:14 44.77777 -0.47227 2973 ft 189 kts 288°
2026-05-06 22:14 44.78146 -0.49011 2987 ft 189 kts 289°
2026-05-06 22:14 44.78518 -0.50791 2957 ft 189 kts 288°
2026-05-06 22:15 44.78889 -0.52560 2779 ft 189 kts 288°
2026-05-06 22:15 44.79255 -0.54310 2545 ft 188 kts 288°
2026-05-06 22:15 44.79623 -0.56067 2317 ft 187 kts 288°
2026-05-06 22:15 44.79991 -0.57823 2141 ft 186 kts 288°
2026-05-06 22:16 44.80357 -0.59570 1873 ft 186 kts 288°
2026-05-06 22:16 44.80714 -0.61272 1589 ft 166 kts 287°
2026-05-06 22:16 44.81014 -0.62700 1314 ft 138 kts 287°
2026-05-06 22:16 44.81275 -0.63944 1095 ft 131 kts 287°
2026-05-06 22:17 44.81532 -0.65172 922 ft 131 kts 287°
2026-05-06 22:17 44.81789 -0.66395 745 ft 130 kts 287°
2026-05-06 22:17 44.82046 -0.67620 559 ft 131 kts 286°
2026-05-06 22:17 44.82306 -0.68829 365 ft 130 kts 286°
2026-05-06 22:18 44.82554 -0.70056 221 ft 129 kts 287°
2026-05-06 22:18 44.82786 -0.71167 163 ft 102 kts 280°
2026-05-06 22:18 44.82859 -0.71532 168 ft 11 kts 287°
2026-05-06 22:18 44.82873 -0.71598 170 ft 8 kts 281°
2026-05-06 22:19 44.82886 -0.71688 171 ft 11 kts 289°
2026-05-06 22:19 44.82913 -0.71796 170 ft 13 kts 289°
2026-05-06 22:19 44.82933 -0.71878 171 ft 14 kts 289°
2026-05-06 22:19 44.82980 -0.72069 170 ft 16 kts 289°
2026-05-06 22:20 44.83065 -0.72128 168 ft 18 kts
2026-05-06 22:20 44.83145 -0.72095 169 ft 17 kts 32°
2026-05-06 22:20 44.83155 -0.71944 168 ft 18 kts 85°
2026-05-06 22:20 44.83128 -0.71835 169 ft 13 kts 122°
2026-05-06 22:21 44.83096 -0.71652 169 ft 16 kts 107°
2026-05-06 22:21 44.83072 -0.71551 167 ft 17 kts 109°
2026-05-06 22:21 44.83034 -0.71387 168 ft 18 kts 107°
2026-05-06 22:21 44.82996 -0.71211 164 ft 20 kts 107°
2026-05-06 22:22 44.82957 -0.71019 165 ft 21 kts 106°
2026-05-06 22:22 44.82914 -0.70810 168 ft 21 kts 105°
2026-05-06 22:22 44.82910 -0.70786 168 ft 1 kts 105°
2026-05-06 22:22 44.82905 -0.70761 168 ft 5 kts 105°
2026-05-06 22:23 44.82892 -0.70697 168 ft 9 kts 107°
2026-05-06 22:23 44.82872 -0.70605 168 ft 11 kts 107°
2026-05-06 22:23 44.82866 -0.70487 168 ft 14 kts 72°
2026-05-06 22:23 44.82888 -0.70452 168 ft 1 kts 25°
2026-05-06 22:24 44.82895 -0.70426 168 ft 4 kts 90°
2026-05-06 22:24 44.82885 -0.70371 168 ft 7 kts 110°
2026-05-06 22:24 44.82886 -0.70293 168 ft 10 kts 47°
2026-05-06 22:24 44.82906 -0.70282 168 ft 0 kts 347°
2026-05-06 22:25 44.82910 -0.70282 168 ft 2 kts 350°
2026-05-06 22:25 44.82930 -0.70281 168 ft 4 kts 23°
2026-05-06 22:25 44.82955 -0.70249 168 ft 3 kts 35°
2026-05-06 22:26 44.82958 -0.70247 168 ft 1 kts 33°
2026-05-06 22:26 44.82961 -0.70243 168 ft 0 kts 32°